SCP
0 0 0 0 0 0 0 0 0 0 0 1 1 1 1 1 1 2 2 2 2 2 2 2 3 4 6 6 4 3 3 5 6 6 5 4 4 4 3 3 3 3 4 5
0 0 0 0 0 0 0 0 0 0 0 1 1 1 1 1 1 2 2 2 2 2 2 2 2 3 4 4 3 2 2 3 4 4 3 3 2 2 2 2 2 2 3 4
0 0 0 0 0 0 0 0 0 0 0 0 1 1 1 1 1 1 2 2 2 2 2 2 2 2 2 2 2 2 2 2 2 2 1 1 1 1 1 1 1 1 2 2
0 0 0 0 0 0 0 0 0 0 0 0 1 1 1 1 1 1 1 1 1 1 1 1 1 1 1 2 2 2 2 1 1 1 1 1 1 1 1 1 1 1 1 1
0 0 0 0 0 0 0 0 0 0 0 0 1 1 1 1 1 1 1 1 1 1 1 1 1 1 1 1 1 2 2 2 1 1 1 1 1 1 1 1 1 1 1 1
0 0 0 0 0 0 0 0 0 0 0 0 1 1 1 1 1 1 1 1 1 1 1 1 1 1 1 1 1 1 2 2 2 1 1 1 1 1 1 1 1 1 1 1
0 0 0 0 0 0 0 0 0 0 0 0 1 1 1 1 1 1 1 1 1 1 1 1 1 1 1 1 1 1 1 2 2 2 2 2 1 1 1 1 1 1 1 1
0 0 0 0 0 0 0 0 0 0 0 0 0 1 1 1 1 1 1 1 1 1 1 1 1 1 1 1 1 1 1 1 1 1 2 2 2 1 1 1 1 1 1 1
0 0 0 0 0 0 0 0 0 0 0 0 0 1 1 1 1 1 1 1 1 1 1 1 1 1 1 1 1 1 1 1 1 1 1 1 2 1 1 1 1 1 1 1
0 0 0 0 0 0 0 0 0 0 0 0 0 1 1 1 0 0 1 1 1 1 1 0 0 0 0 0 0 1 1 1 1 1 1 1 1 2 2 2 2 2 2 2
0 0 0 0 0 0 0 0 0 0 0 0 0 0 1 1 0 0 0 0 0 0 0 0 0 0 0 0 0 0 1 1 1 1 1 1 1 1 2 2 2 2 2 3
0 0 0 0 0 0 0 0 0 0 0 0 0 0 0 0 0 0 0 0 0 0 0 0 0 0 0 0 0 0 0 0 0 0 0 1 1 1 1 2 2 2 2 2
0 0 0 0 0 0 0 0 0 0 0 0 0 0 0 0 0 0 0 0 0 0 0 0 0 0 0 0 0 0 0 0 0 0 0 0 1 1 1 1 1 1 1 2
0 0 0 0 0 0 0 0 0 0 0 0 0 0 0 0 0 0 0 0 0 0 0 0 0 0 0 0 0 0 0 0 0 0 0 0 1 1 1 1 1 1 1 1
0 0 0 0 0 0 0 0 0 0 0 0 0 0 0 0 0 0 0 0 0 0 0 0 0 0 0 0 0 0 0 0 0 0 0 0 1 1 1 1 1 1 1 1
0 0 0 0 0 0 0 0 0 0 0 0 0 0 0 0 0 0 0 0 0 0 0 0 0 0 0 0 0 0 0 0 0 0 0 0 1 1 1 1 1 1 1 1
0 0 0 0 0 0 0 0 0 0 0 0 0 0 0 0 0 0 0 0 0 0 0 0 0 0 0 0 0 0 0 0 0 0 0 0 0 1 1 1 1 1 1 1
0 0 0 0 0 0 0 0 0 0 0 0 0 0 0 0 0 0 0 0 0 0 0 0 0 0 0 0 0 0 0 0 0 0 0 0 0 0 0 1 1 1 1 1
0 0 0 0 0 0 0 0 0 0 0 0 0 0 0 0 0 0 0 0 0 0 0 0 0 0 0 0 0 0 0 0 0 0 0 0 0 0 0 0 1 1 1 1
0 0 0 0 0 0 0 0 0 0 0 0 0 0 0 0 0 0 0 0 0 0 0 0 0 0 0 0 0 0 0 0 0 0 0 0 0 0 0 0 0 1 1 1
0 0 0 0 0 0 0 0 0 0 0 0 0 0 0 0 0 0 0 0 0 0 0 0 0 0 0 0 0 0 0 0 0 0 0 0 0 0 0 0 0 0 0 1
0 0 0 0 0 0 0 0 0 0 0 0 0 0 0 0 0 0 0 0 0 0 0 0 0 0 0 0 0 0 0 0 0 0 0 0 0 0 0 0 0 0 0 0
0 0 0 0 0 0 0 0 0 0 0 0 0 0 0 0 0 0 0 0 0 0 0 0 0 0 0 0 0 0 0 0 0 0 0 0 0 0 0 0 0 0 0 0
0 0 0 0 0 0 0 0 0 0 0 0 0 0 0 0 0 0 0 0 0 0 0 0 0 0 0 0 0 0 0 0 0 0 0 0 0 0 0 0 0 0 0 0
0 0 0 0 0 0 0 0 0 0 0 0 0 0 0 0 0 0 0 0 0 0 0 0 0 0 0 0 0 0 0 0 0 0 0 0 0 0 0 0 0 0 0 0
0 0 0 0 0 0 0 0 0 0 0 0 0 0 0 0 0 0 0 0 0 0 0 0 0 0 0 0 0 0 0 0 0 0 0 0 0 0 0 0 0 0 0 0
Wind_Speed
5 7 4 2 3 5 4 3 1 5 4 3 7 8 7 6 7 8 8 8 9 9 9 8 8 7 7 7 6 4 3 3 2 2 3 3 4 5 5 5 7 8 7 7
7 4 2 3 3 5 5 4 2 5 4 2 6 7 7 6 7 7 7 7 8 8 8 8 7 7 6 6 4 3 1 2 2 2 3 3 5 4 3 4 4 4 5 5
4 4 3 4 5 6 6 6 2 3 5 6 6 8 8 7 7 7 7 7 7 7 7 6 6 6 5 5 4 3 3 2 3 3 3 2 3 3 3 3 3 3 3 3
2 2 4 6 4 6 5 2 3 4 7 4 7 3 9 7 7 7 6 6 6 5 5 5 5 5 4 4 3 2 2 2 2 3 3 4 4 4 4 4 4 4 3 3
2 4 5 5 4 6 4 2 4 6 7 5 5 6 9 7 6 7 6 5 5 4 4 3 3 2 2 2 1 1 1 2 2 3 3 4 4 3 3 3 3 3 3 2
3 2 3 5 3 2 0 3 5 8 9 6 0 5 6 5 4 6 6 5 4 3 2 1 0 1 1 2 2 3 3 3 4 4 4 4 4 4 4 4 3 3 2 1
1 1 2 3 4 3 4 7 6 6 5 0 2 3 8 7 4 3 3 3 3 2 2 2 3 3 4 5 5 6 6 7 6 7 6 6 5 5 5 5 4 4 4 2
3 1 5 5 6 5 3 7 6 6 5 1 4 1 8 6 4 2 1 2 3 3 4 4 5 6 7 8 8 8 8 9 9 9 9 8 8 8 7 5 6 6 5 4
6 4 4 4 4 5 3 3 6 7 6 6 2 7 8 4 2 1 2 3 4 4 5 6 7 8 9 10 10 10 10 11 11 11 11 11 11 11 10 9 8 8 6 6
6 5 2 1 3 4 5 3 4 5 6 6 1 3 4 4 3 3 3 4 4 5 7 8 9 9 10 10 10 11 11 12 12 13 12 11 11 12 12 12 11 10 10 9
5 5 1 2 4 6 2 1 4 4 5 7 6 4 7 5 5 5 4 4 6 7 9 10 10 10 11 11 12 12 12 13 12 13 13 13 13 13 13 13 13 12 12 11
3 6 2 4 4 3 5 5 5 6 5 5 7 4 7 3 4 5 6 6 7 9 11 12 12 12 12 13 13 13 13 14 14 14 14 14 14 14 14 15 14 14 14 13
2 4 4 7 7 4 3 4 4 4 4 5 7 4 5 2 4 5 7 9 10 11 12 13 13 13 13 14 14 15 15 16 16 16 16 16 16 15 15 16 15 14 14 14
4 3 6 7 6 4 1 2 3 5 5 6 7 9 7 7 7 8 9 11 12 13 13 14 13 14 14 15 16 16 16 16 17 17 17 17 17 17 16 16 15 15 15 15
4 1 1 3 2 2 1 1 1 3 6 8 10 11 10 8 9 10 11 13 14 15 15 15 15 15 16 16 16 16 17 17 17 17 18 18 17 17 17 16 16 16 15 15
2 2 2 3 2 2 4 3 3 3 5 8 10 10 7 8 9 11 13 14 15 15 16 16 17 17 17 17 17 17 17 17 17 18 18 18 17 17 17 17 17 16 15 15
4 4 5 4 2 7 6 4 4 5 7 9 11 11 11 12 12 13 14 14 14 16 17 17 17 17 17 17 17 17 17 17 17 17 18 17 17 17 16 17 17 16 15 14
4 5 5 5 4 7 5 3 2 6 9 8 8 10 11 12 13 13 11 10 13 16 17 17 17 17 17 17 17 17 17 17 17 17 17 17 16 16 16 16 16 15 13 13
5 6 6 6 8 6 5 3 2 7 10 4 6 10 12 12 14 9 6 10 14 16 16 16 16 17 17 17 17 17 17 17 17 17 17 16 16 16 16 16 15 13 12 12
5 6 8 6 9 7 3 5 1 5 5 3 6 10 11 12 12 10 13 14 15 15 15 15 16 17 17 16 17 17 17 17 17 17 17 16 16 16 16 15 15 13 12 12
7 7 8 9 9 3 7 5 4 6 7 5 7 9 10 11 11 14 15 15 15 15 16 16 16 15 15 16 16 17 17 17 17 16 16 16 15 15 15 14 12 11 10 11
7 6 5 6 7 0 8 4 3 5 4 5 6 8 9 11 12 13 14 14 15 16 16 16 15 15 15 15 15 16 17 16 16 16 16 15 14 13 12 12 12 11 10 10
6 5 4 4 3 5 4 3 1 3 5 5 6 7 9 11 12 13 14 14 15 15 15 15 15 16 15 15 15 16 16 16 15 15 15 14 14 12 11 11 10 9 8 7
4 2 5 6 5 4 4 5 4 4 5 4 5 7 8 11 12 13 13 13 14 15 15 14 15 16 15 15 15 15 15 15 15 15 14 13 12 12 10 8 7 7 6 6
5 5 7 9 7 5 6 6 5 4 4 4 4 6 8 10 12 12 12 13 13 14 14 14 14 15 16 16 15 15 14 14 15 14 13 12 11 10 9 8 6 6 5 4
7 8 9 7 4 5 2 3 4 4 4 4 5 6 7 8 11 12 12 12 13 14 14 14 14 15 16 15 15 14 13 14 14 12 11 9 9 8 7 7 5 3 5 4
Wind_Direction
215 242 254 341 316 321 307 292 90 94 104 87 100 97 83 73 75 78 74 75 75 70 66 63 64 67 74 73 67 57 45 29 346 312 296 294 292 285 279 269 271 271 262 251
222 218 346 320 277 253 246 247 171 125 138 160 129 113 96 79 74 71 76 76 79 84 77 70 71 73 73 76 72 68 49 20 337 334 305 294 299 297 295 287 275 282 278 270
281 21 349 274 246 244 245 267 264 159 157 176 177 157 137 114 102 97 89 86 83 79 80 80 78 73 67 59 53 45 28 6 352 335 310 304 284 283 299 310 303 304 302 287
281 353 302 283 277 283 275 323 267 201 216 197 231 227 138 138 131 118 109 102 96 90 87 86 85 78 70 64 62 53 29 4 347 321 339 334 331 330 335 326 330 327 328 302
335 339 313 307 346 313 345 352 240 232 253 253 220 268 125 153 142 129 124 118 113 111 102 95 85 69 59 47 20 9 347 335 329 326 327 317 331 332 333 329 336 327 337 323
326 311 320 337 337 326 217 218 213 228 246 245 6 287 119 116 106 123 129 134 139 139 132 130 146 301 300 294 297 304 301 297 298 299 307 306 314 314 321 318 322 316 320 323
207 138 57 326 279 193 251 268 250 229 234 170 105 268 78 77 79 96 130 155 171 190 211 244 275 289 292 289 294 296 293 289 287 287 286 284 282 281 279 290 303 300 303 300
311 31 36 8 341 323 313 294 309 311 317 340 178 105 85 81 89 102 154 199 220 236 249 268 281 289 292 294 293 291 289 286 285 282 279 277 274 273 280 275 288 288 287 290
334 7 76 37 13 319 296 332 341 291 284 283 129 113 117 118 119 186 223 232 247 266 278 285 292 298 301 303 301 300 297 292 288 284 280 273 269 272 279 277 263 267 263 262
332 312 61 111 210 70 3 340 274 298 319 302 275 142 109 80 13 333 295 288 291 292 296 301 303 306 307 306 305 303 298 295 293 290 285 281 276 270 267 268 271 270 266 258
323 300 82 144 27 13 360 6 335 317 322 315 320 61 68 32 1 337 323 309 307 307 308 310 311 314 313 312 309 307 304 302 298 295 293 289 285 280 274 267 265 263 260 257
344 309 0 88 83 28 31 11 340 324 337 313 306 73 89 33 350 331 323 319 316 313 313 315 318 319 316 314 313 312 310 307 304 301 296 290 287 283 279 275 271 267 262 257
339 294 246 170 164 143 61 43 12 331 296 315 315 37 111 340 320 321 319 319 315 314 315 317 318 318 316 315 314 311 309 307 305 303 299 294 289 285 282 279 275 270 265 260
292 339 345 11 20 8 55 56 11 327 325 327 334 333 336 337 327 321 319 316 315 316 318 318 318 315 317 315 312 311 309 308 306 303 299 295 292 288 285 282 279 273 267 262
265 246 44 38 25 312 331 331 341 345 342 326 331 322 335 348 332 323 316 315 317 319 320 321 320 318 316 314 313 311 309 308 306 302 297 295 293 290 287 283 279 274 269 265
264 275 246 209 197 265 256 244 272 310 320 319 315 322 6 335 316 314 317 319 319 320 322 322 319 318 316 315 313 311 308 307 304 300 297 296 295 292 289 286 281 276 270 266
218 242 271 281 191 261 243 215 263 304 319 317 315 332 336 321 321 321 318 316 320 322 322 320 319 316 315 313 313 309 308 306 303 300 299 297 295 292 292 289 285 280 274 268
243 252 269 289 263 274 62 82 300 300 305 310 308 320 327 322 320 310 306 319 322 320 319 319 317 316 315 314 312 310 309 308 305 302 300 299 297 294 291 288 284 282 278 272
237 245 271 283 284 283 144 169 276 306 305 319 316 321 323 325 309 304 8 340 324 320 318 316 316 316 315 314 316 314 310 309 306 304 303 302 300 296 292 288 284 281 277 271
189 232 261 270 289 296 85 115 89 284 281 77 321 318 323 320 312 335 350 332 324 322 319 318 317 316 316 318 318 313 310 309 307 307 307 304 301 297 293 289 285 280 276 271
208 221 251 269 275 286 102 125 208 285 2 3 321 319 317 320 314 320 324 324 322 320 319 319 318 317 318 319 318 312 310 310 311 310 307 304 302 298 293 287 284 280 275 272
267 258 245 267 271 261 127 169 271 339 354 318 318 318 319 315 313 317 321 322 321 322 322 323 320 319 320 320 317 312 310 313 314 311 307 305 304 300 297 294 289 283 277 270
255 303 305 279 333 89 165 228 322 320 298 312 315 320 318 314 318 322 322 322 322 323 323 323 322 320 321 321 319 314 315 317 315 312 309 308 305 301 298 293 291 288 279 267
200 208 255 255 243 206 211 230 239 250 277 303 309 313 315 315 319 322 322 321 322 323 323 325 323 320 320 321 320 316 316 318 316 312 310 309 307 304 302 295 289 287 285 276
285 211 241 250 255 233 218 225 235 231 247 271 293 309 314 316 317 322 320 322 324 322 324 325 321 319 319 320 319 319 322 321 317 313 310 310 307 306 306 303 295 293 288 286
243 233 243 266 238 234 198 160 197 217 236 265 292 303 312 317 319 320 320 323 322 322 324 323 322 321 319 320 321 324 326 323 318 315 315 314 311 312 314 313 310 277 272 288